Simultaneous Nadir Overpasses (SNOs) Predictions

Prediction of SNOs between GOES-16 and NOAA-19 Satellite Orbit:

Table of predicted SNOs for the next 14.0 days since TLE Epoch: 4/29/2023
Index Date Time (GOES-16) GOES-16 Lat,Lon NOAA-19 Lat,Lon Distance(km) Time Diff (sec)
1 04/29/2023 13:27:29 0.04, -75.18 -0.05, -74.76 47.79 80
2 04/30/2023 13:15:29 0.04, -75.19 -0.71, -71.84 381.86 80
3 05/03/2023 01:38:25 -0.04, -75.20 -0.37, -76.66 166.60 80
4 05/04/2023 01:23:45 -0.04, -75.21 0.32, -73.74 168.12 80
5 05/06/2023 13:43:51 0.04, -75.23 0.78, -78.51 373.87 80
6 05/07/2023 13:32:37 0.03, -75.24 0.10, -75.58 39.29 33
7 05/08/2023 13:19:50 0.03, -75.25 -0.57, -72.66 295.30 80
8 05/11/2023 01:42:44 -0.02, -75.26 -0.52, -77.47 251.33 80
9 05/12/2023 01:28:02 -0.02, -75.27 0.13, -74.53 83.86 80
10 05/13/2023 01:16:02 -0.01, -75.29 0.83, -71.61 419.17 80
